This demonstration page uses our WeatherBlox Daily Observations layout. Learn more.

39.92423, -83.80882

Hourly Observations for May 23, 2017

Temp ( °F °C ) Dew Point ( °F °C ) Humidity (%) Winds ( mph kmh ) Pressure ( in mb ) Visibility ( mi km ) Precip ( " mm )
12:56 am 00:56 Clear 54 12.2 49 9.4 83 83 Calm 30.01 1016 10 16.0934 0 0
1:56 am 01:56 Clear 52 11.1 49 9.4 89 89 SE 3 6 29.99 1016 10 16.0934 0 0
2:56 am 02:56 Clear 51 10.6 48 8.9 89 89 Calm 29.97 1015 10 16.0934 0 0
3:56 am 03:56 Clear 51 10.6 48 8.9 89 89 ESE 5 7 29.93 1014 10 16.0934 0 0
4:56 am 04:56 Clear 50 10 48 8.9 93 93 Calm 29.93 1014 10 16.0934 0 0
5:56 am 05:56 Clear 48 8.9 46 7.8 93 93 ENE 3 6 29.91 1013 10 16.0934 0 0
6:56 am 06:56 Sunny 49 9.4 47 8.3 93 93 Calm 29.91 1013 10 16.0934 0 0
7:56 am 07:56 Sunny 55 12.8 51 10.6 87 87 undefined N/A 29.92 1013 10 16.0934 0 0
8:56 am 08:56 Sunny 59 15 51 10.6 75 75 ESE 5 7 29.91 1013 10 16.0934 0 0
9:56 am 09:56 Sunny 63 17.2 51 10.6 65 65 SE 10 17 29.87 1012 10 16.0934 0 0
10:56 am 10:56 Sunny 65 18.3 50 10 59 59 ESE 12 19 29.85 1011 10 16.0934 0 0
11:56 am 11:56 Sunny 66 18.9 49 9.4 54 54 E 14 22 29.82 1010 10 16.0934 0 0
12:56 pm 12:56 Sunny 69 20.6 51 10.6 53 53 ESE 10 17 29.8 1009 10 16.0934 0 0
1:56 pm 13:56 Sunny 70 21.1 51 10.6 51 51 SE 9 15 29.77 1008 10 16.0934 0 0
2:56 pm 14:56 Sunny 71 21.7 51 10.6 49 49 ESE 8 13 29.75 1007 10 16.0934 0 0
3:56 pm 15:56 Sunny 73 22.8 49 9.4 43 43 SSE 9 15 29.71 1006 10 16.0934 0 0
4:56 pm 16:56 Sunny 73 22.8 49 9.4 43 43 SSE 9 15 29.7 1006 10 16.0934 0 0
5:56 pm 17:56 Sunny 71 21.7 48 8.9 44 44 ESE 6 9 29.7 1006 10 16.0934 0 0
6:56 pm 18:56 Mostly Cloudy 70 21.1 49 9.4 47 47 ESE 6 9 29.68 1005 10 16.0934 0 0
7:56 pm 19:56 Sunny 68 20 50 10 53 53 ESE 6 9 29.67 1005 10 16.0934 0 0
8:56 pm 20:56 Mostly Cloudy 66 18.9 53 11.7 63 63 SSE 5 7 29.67 1005 10 16.0934 0 0
9:56 pm 21:56 Mostly Cloudy 65 18.3 53 11.7 66 66 SE 5 7 29.66 1004 10 16.0934 0 0
10:56 pm 22:56 Mostly Cloudy 64 17.8 54 12.2 70 70 SSE 5 7 29.66 1005 10 16.0934 0 0
11:56 pm 23:56 Clear 63 17.2 55 12.8 76 76 SSE 7 11 29.65 1004 10 16.0934 0 0

Powered by AerisWeather